Location: Newark
(42.7133°N, 87.7910°W)
Time: 12:09:12
(UTC+00:00)

Transit 4A - Pass Details

Date: 21 September 2019
Orbit: 867 x 978 km, 66.8° (Epoch: 20 October)

Event Time Altitude Azimuth Distance (km) Brightness Sun altitude
Rises 01:54:17 0° 330° (NNW) 3,597 11.8 -22.6°
Reaches altitude 10° 01:56:52 10° 332° (NNW) 2,633 11.0 -23.0°
Maximum altitude 02:02:59 74° 57° (ENE) 943 7.7 -24.0°
Enters shadow 02:04:10 57° 121° (ESE) 1,051 7.8 -24.2°
